This is the latest recevied weather packets stored in our database for station/object OK1LPD-6. If no packets are shown the sender has not sent any weather packets the latest 10 day(s).
| Time | Temp. | Humidity | Pressure | Rain* | Wind** | Luminosity | Snow |
|---|---|---|---|---|---|---|---|
| 1777529713 | 7.78° C | 43% | 1032.3 hPa | 0 mm | - | - | - |
| 1777529093 | 7.22° C | 51% | 1032.3 hPa | 0 mm | - | - | - |
| 1777528493 | 6.67° C | 51% | 1032.2 hPa | 0 mm | - | - | - |
| 1777527911 | 6.11° C | 51% | 1032.2 hPa | 0 mm | - | - | - |
| 1777527294 | 6.11° C | 50% | 1032 hPa | 0 mm | - | - | - |
| 1777526694 | 6.67° C | 53% | 1032.1 hPa | 0 mm | - | - | - |
| 1777526114 | 5.56° C | 55% | 1032.3 hPa | 0 mm | - | - | - |
| 1777524894 | 3.33° C | 60% | 1032.2 hPa | 0 mm | - | - | - |
| 1777524312 | 3.33° C | 61% | 1032 hPa | 0 mm | - | - | - |
| 1777523695 | 2.22° C | 63% | 1032.1 hPa | 0 mm | - | - | - |
| 1777523094 | 1.67° C | 68% | 1032 hPa | 0 mm | - | - | - |
| 1777522515 | 0.56° C | 72% | 1031.8 hPa | 0 mm | - | - | - |
| 1777521894 | -1.11° C | 72% | 1031.7 hPa | 0 mm | - | - | - |
| 1777521295 | -1.11° C | 71% | 1031.6 hPa | 0 mm | - | - | - |
| 1777520712 | -1.11° C | 71% | 1031.4 hPa | 0 mm | - | - | - |
| 1777520095 | -1.11° C | 71% | 1031.4 hPa | 0 mm | - | - | - |
| 1777519495 | -1.11° C | 71% | 1031.3 hPa | 0 mm | - | - | - |
| 1777518914 | -1.11° C | 71% | 1031.3 hPa | 0 mm | - | - | - |
| 1777518295 | -1.11° C | 71% | 1031.1 hPa | 0 mm | - | - | - |
| 1777517695 | -1.11° C | 71% | 1031.3 hPa | 0 mm | - | - | - |
| 1777517113 | -1.11° C | 69% | 1031.2 hPa | 0 mm | - | - | - |
| 1777516495 | -1.11° C | 68% | 1031.3 hPa | 0 mm | - | - | - |
| 1777515895 | -0.56° C | 69% | 1031.1 hPa | 0 mm | - | - | - |
| 1777515315 | -0.56° C | 67% | 1031.2 hPa | 0 mm | - | - | - |
| 1777514695 | -0.56° C | 68% | 1031.2 hPa | 0 mm | - | - | - |
* Rain latest hour (hover to see other rain measurements)
** Current wind speed in m/s (hover to see current wind gust speed)